Tracking 31027 objects as of 19-Jul-2025
HD Live streaming from Space Station
objects crossing your sky now

OBJECT H

Track OBJECT H now!
10-day predictions


NORAD ID: 53451
Int'l Code: 2022-098H
Perigee: 439.2 km
Apogee: 445.4 km
Inclination: 97.5 °
Period: 93.3 minutes
Semi major axis: 6813 km
RCS: Unknown
Launch date: August 10, 2022
Source: People's Republic of China (PRC)
Launch site: Taiyaun Space Center, China (TSC)
Your satellite tracking list
No more satellites can be added for tracking (max 5)
FOX-1B (RADFXSAT AO-91)
FOX-1D (AO-92)
FOX-1A (AO-85)
FUNCUBE 1 (AO-73)
SPACE STATION
Track 5 satellite(s)




NASA's NSSDC Master Catalog

Two Line Element Set (TLE):
1 53451U 22098H   25199.90376072  .00023767  00000-0  52750-3 0  9996
2 53451  97.5454 312.8967 0004547 139.7550 220.4035 15.43709682163203
Source of the keplerian elements: AFSPC